User: anonymous   Login
Location: Unspecified
(0.0000°N, 0.0000°E)
Time: 00:46:19
(UTC+02:00)
Language:

Meteor 2-8 Rocket - Orbit

View from above orbital plane
View from above orbital plane
View from above satellite
View from above satellite

Ground track
Ground track

The orbit data is extracted from the following two-line orbital elements,

1 13114U 82025B   16178.48399078  .00000039  00000-0  21071-4 0  9995
2 13114  82.5402 125.8089 0015867  70.9591  67.2045 13.84654146731180
Epoch (UTC): 26 June 2016 11:36:56
Eccentricity: 0.0015867
inclination: 82.5402°
perigee height: 936 km
apogee height: 959 km
right ascension of ascending node: 125.8089°
argument of perigee: 70.9591°
revolutions per day: 13.84654146
mean anomaly at epoch: 67.2045°
orbit number at epoch: 73118

The dashed part of the orbit path shows where the satellite is in the earth's shadow,  

DLR